Dole Tavaux, France

4:37 AM CEST on October 17, 2017 (GMT +0200)
Tavaux

Weather History for LFGJ - February, 2013

Change the Weather History Date:

Wednesday, February 6, 2013

  Actual Average (LFSD) Record (LFSD)
Temperature  
Mean Temperature 36 °F -  
Max Temperature 41 °F 43 °F 58 °F (2016)
Min Temperature 32 °F 30 °F 29 °F (2015)
Degree Days  
Heating Degree Days 28    
Moisture  
Dew Point 32 °F    
Average Humidity 89    
Maximum Humidity 100    
Minimum Humidity 65    
Precipitation  
Precipitation 0.00 in - - ()
Sea Level Pressure  
Sea Level Pressure 29.60 in    
Wind  
Wind Speed 13 mph ()    
Max Wind Speed 23 mph    
Max Gust Speed 36 mph    
Visibility 5.5 miles    
Events Rain , Snow    
Averages and records for this station are not official NWS values.
T = Trace of Precipitation, MM = Missing Value Source: Averaged Metar Reports

Daily Weather History Graph

Daily Weather History Graph

Search for Another Location

Airport or City:

Trip Planner

Search our weather history database for the weather conditions in past years. The results will help you decide how hot, cold, wet, or windy it might be!

Date:

Astronomy

Feb. 06, 2013 Rise Set
Actual Time 7:56 AM CET 5:48 PM CET
Civil Twilight 7:24 AM CET 6:20 PM CET
Nautical Twilight 6:48 AM CET 6:57 PM CET
Astronomical Twilight 6:12 AM CET 7:32 PM CET
Moon 4:32 AM CET (2/6) 1:42 PM CET (2/6)
Length of Visible Light 10h 56m
Length of Day
9h 52m
Waning Crescent, 19% of the Moon is Illuminated
Feb 6
Waning Crescent
Feb 10
New
Feb 17
First Quarter
Feb 25
Full
Mar 4
Last Quarter

Hourly Weather History & Observations

Time (CET) Temp. Windchill Dew Point Humidity Pressure Visibility Wind Dir Wind Speed Gust Speed Precip Events Conditions
12:00 AM 33.8 °F 26.4 °F 30.2 °F 87% 29.74 in 6.2 mi SSW 9.2 mph - N/A   Unknown
12:30 AM 33.8 °F 25.8 °F 32.0 °F 93% 29.74 in 6.2 mi SSW 10.4 mph - N/A   Unknown
1:00 AM 33.8 °F 26.4 °F 32.0 °F 93% 29.71 in 6.2 mi South 9.2 mph - N/A   Mostly Cloudy
1:30 AM 33.8 °F 24.8 °F 32.0 °F 93% 29.71 in 6.2 mi South 12.7 mph - N/A   Mostly Cloudy
2:00 AM 33.8 °F 24.8 °F 32.0 °F 93% 29.71 in 6.2 mi SSW 12.7 mph - N/A   Unknown
2:30 AM 33.8 °F 25.3 °F 32.0 °F 93% 29.68 in 6.2 mi SSW 11.5 mph - N/A   Overcast
3:00 AM 33.8 °F 23.9 °F 32.0 °F 93% 29.68 in 6.2 mi SSW 15.0 mph - N/A   Overcast
3:30 AM 33.8 °F 23.9 °F 32.0 °F 93% 29.65 in 6.2 mi SSW 15.0 mph - N/A   Unknown
4:00 AM 35.6 °F 26.6 °F 32.0 °F 87% 29.62 in 6.2 mi South 13.8 mph - N/A   Overcast
4:30 AM 35.6 °F 25.9 °F 32.0 °F 87% 29.62 in 6.2 mi South 16.1 mph - N/A   Mostly Cloudy
5:00 AM 35.6 °F 26.2 °F 32.0 °F 87% 29.59 in 6.2 mi South 15.0 mph - N/A   Overcast
5:30 AM 35.6 °F 25.5 °F 30.2 °F 81% 29.56 in 6.2 mi South 17.3 mph - N/A   Overcast
6:00 AM 35.6 °F 25.9 °F 30.2 °F 81% 29.56 in 6.2 mi South 16.1 mph - N/A   Overcast
6:30 AM 33.8 °F 22.8 °F 32.0 °F 93% 29.56 in 1.2 mi SSW 18.4 mph - N/A Snow Snow
7:00 AM 33.8 °F 23.2 °F 32.0 °F 93% 29.53 in - SSW 17.3 mph - N/A Snow Light Snow
7:30 AM 33.8 °F 22.8 °F 32.0 °F 93% 29.53 in - South 18.4 mph - N/A Rain Rain
8:00 AM 33.8 °F 21.9 °F 32.0 °F 93% 29.53 in 6.2 mi SSW 21.9 mph - N/A Rain Light Rain
8:30 AM 33.8 °F 21.6 °F 32.0 °F 93% 29.53 in 6.2 mi SSW 23.0 mph 35.7 mph N/A Rain Light Freezing Rain
9:00 AM 33.8 °F 22.2 °F 32.0 °F 93% 29.53 in 6.2 mi South 20.7 mph - N/A Rain , Snow Light Snow
9:30 AM 33.8 °F 22.5 °F 32.0 °F 93% 29.53 in 6.2 mi South 19.6 mph - N/A   Overcast
10:00 AM 33.8 °F 21.9 °F 32.0 °F 93% 29.50 in 6.2 mi South 21.9 mph - N/A Rain Light Rain
10:30 AM 33.8 °F 22.5 °F 32.0 °F 93% 29.50 in - South 19.6 mph - N/A Snow Snow
11:00 AM 33.8 °F 22.8 °F 32.0 °F 93% 29.50 in 6.2 mi SSW 18.4 mph - N/A Rain , Snow Light Snow
11:30 AM 35.6 °F 24.2 °F 33.8 °F 93% 29.50 in 6.2 mi SSW 21.9 mph - N/A   Overcast
12:00 PM 35.6 °F 24.5 °F 33.8 °F 93% 29.50 in 6.2 mi SSW 20.7 mph - N/A   Overcast
12:30 PM 35.6 °F 26.2 °F 33.8 °F 93% 29.50 in 6.2 mi SSW 15.0 mph - N/A Rain Light Rain
1:00 PM 37.4 °F 27.8 °F 35.6 °F 93% 29.50 in 6.2 mi SSW 17.3 mph - N/A   Overcast
1:30 PM 37.4 °F 27.5 °F 35.6 °F 93% 29.50 in 6.2 mi SSW 18.4 mph - N/A   Overcast
2:00 PM 39.2 °F 31.2 °F 37.4 °F 93% 29.50 in 6.2 mi SSW 13.8 mph - N/A Rain Light Rain
2:30 PM 39.2 °F 30.8 °F 37.4 °F 93% 29.50 in 6.2 mi WSW 15.0 mph - N/A   Light Drizzle
3:00 PM 41.0 °F 34.7 °F 35.6 °F 81% 29.50 in 6.2 mi West 10.4 mph - N/A   Mostly Cloudy
3:30 PM 39.2 °F 32.0 °F 33.8 °F 81% 29.53 in 3.7 mi NW 11.5 mph - N/A   Mostly Cloudy
4:00 PM 41.0 °F 34.3 °F 33.8 °F 76% 29.53 in 6.2 mi WNW 11.5 mph - N/A   Mostly Cloudy
4:30 PM 41.0 °F 33.9 °F 30.2 °F 65% 29.56 in 6.2 mi NW 12.7 mph - N/A   Overcast
5:00 PM 39.2 °F 31.6 °F 28.4 °F 65% 29.56 in 6.2 mi NNW 12.7 mph - N/A   Overcast
5:30 PM 37.4 °F 27.8 °F 28.4 °F 70% 29.59 in 6.2 mi NW 17.3 mph 29.9 mph N/A   Mostly Cloudy
6:00 PM 37.4 °F 29.8 °F 30.2 °F 75% 29.62 in 6.2 mi NW 11.5 mph - N/A Rain Light Rain
6:30 PM 35.6 °F 27.1 °F 32.0 °F 87% 29.62 in 6.2 mi WNW 12.7 mph - N/A Rain , Snow Light Snow
7:00 PM 33.8 °F 25.3 °F 32.0 °F 93% 29.65 in - NW 11.5 mph - N/A Rain , Snow Heavy Snow
7:30 PM 33.8 °F 23.5 °F 32.0 °F 93% 29.65 in - NW 16.1 mph - N/A Snow Light Snow
8:00 PM 33.8 °F 24.8 °F 32.0 °F 93% 29.68 in 1.2 mi NW 12.7 mph - N/A Snow Heavy Snow
8:30 PM 33.8 °F 25.8 °F 32.0 °F 93% 29.68 in 0.8 mi NW 10.4 mph - N/A Snow Snow
9:00 PM 32.0 °F 22.5 °F 32.0 °F 100% 29.71 in 1.1 mi NNW 12.7 mph 25.3 mph N/A Snow Heavy Snow
9:30 PM 32.0 °F 26.4 °F 32.0 °F 100% 29.71 in 5.6 mi NNW 5.8 mph - N/A Snow Light Snow
10:00 PM 33.8 °F 26.4 °F 32.0 °F 93% 29.71 in 4.3 mi NNW 9.2 mph - N/A Snow Light Snow
10:30 PM 33.8 °F 25.8 °F 30.2 °F 87% 29.74 in 4.3 mi NNW 10.4 mph - N/A   Overcast
11:00 PM 32.0 °F 23.6 °F 28.4 °F 87% 29.74 in 4.3 mi NNW 10.4 mph - N/A   Overcast
11:30 PM 32.0 °F 24.2 °F 28.4 °F 87% 29.77 in 4.3 mi NW 9.2 mph - N/A   Unknown